FW6455 Weather Reports


Display with metric or nautical units.
time (UTC)temp
F
wind
direction
speed
MPH
gust
MPH
rain 1hr
in
rain 24hr
in
rain mn
in
humidity
%
barometer
mb
20260831034039 83 0 0.0 0.0 0.00 0.00 0.00 60 1015.4
20260831033539 84 0 0.0 0.0 0.00 0.00 0.00 60 1015.4
20260831033110 84 0 0.0 0.0 0.00 0.00 0.00 59 1015.3
20260831032539 84 0 0.0 0.0 0.00 0.00 0.00 59 1015.4
20260831032043 84 0 0.0 0.0 0.00 0.00 0.00 58 1015.3
20260831031605 85 0 0.0 0.0 0.00 0.00 0.00 58 1015.3
20260831031038 85 0 0.0 0.0 0.00 0.00 0.00 57 1015.3
20260831030538 85 0 0.0 0.0 0.00 0.00 0.00 56 1015.3
20260831030103 85 0 0.0 0.0 0.00 0.00 0.00 56 1015.2
20260831025540 85 0 0.0 0.0 0.00 0.00 0.00 56 1015.3
20260831025036 86 0 0.0 0.0 0.00 0.00 0.00 56 1015.1
20260831024608 86 0 0.0 0.0 0.00 0.00 0.00 56 1015.0
20260831024042 86 0 0.0 0.0 0.00 0.00 0.00 56 1015.0
20260831023536 87 0 0.0 0.0 0.00 0.00 0.00 55 1014.9
20260831023107 87 0 0.0 0.0 0.00 0.00 0.00 54 1014.9
20260831022540 87 0 0.0 0.0 0.00 0.00 0.00 53 1014.8
20260831022043 87 0 0.0 0.0 0.00 0.00 0.00 53 1014.7
20260831021602 88 0 0.0 0.0 0.00 0.00 0.00 52 1014.6
20260831021039 88 0 0.0 0.0 0.00 0.00 0.00 52 1014.6
20260831020539 88 0 0.0 0.0 0.00 0.00 0.00 51 1014.6
20260831020105 89 0 0.0 0.0 0.00 0.00 0.00 51 1014.5
20260831015538 89 0 0.0 0.0 0.00 0.00 0.00 50 1014.4
20260831015036 89 0 0.0 0.0 0.00 0.00 0.00 50 1014.4
20260831014559 90 0 0.0 0.0 0.00 0.00 0.00 49 1014.4
20260831014037 90 0 0.0 0.0 0.00 0.00 0.00 49 1014.2
20260831013536 90 0 0.0 0.0 0.00 0.00 0.00 49 1014.2
20260831013114 90 0 0.0 0.0 0.00 0.00 0.00 49 1014.1
20260831012536 91 0 0.0 0.0 0.00 0.00 0.00 48 1014.2
20260831012039 91 0 0.0 0.0 0.00 0.00 0.00 47 1014.2
20260831011605 92 0 0.0 0.0 0.00 0.00 0.00 47 1014.1
20260831011038 92 0 0.0 0.0 0.00 0.00 0.00 46 1014.1
20260831010535 93 0 0.0 0.0 0.00 0.00 0.00 45 1014.1
20260831010123 93 0 0.0 1.0 0.00 0.00 0.00 45 1014.2
20260831005535 93 0 0.0 1.0 0.00 0.00 0.00 44 1014.1
20260831005038 94 0 0.0 1.0 0.00 0.00 0.00 44 1014.1
20260831004610 94 0 0.0 1.0 0.00 0.00 0.00 43 1014.0
20260831004043 94 0 0.0 1.0 0.00 0.00 0.00 42 1014.0
20260831003539 95 144 0.0 1.0 0.00 0.00 0.00 42 1013.8
20260831003108 95 144 0.0 3.0 0.00 0.00 0.00 42 1013.8
20260831002539 95 0 0.0 3.0 0.00 0.00 0.00 42 1013.8
20260831002039 96 0 0.0 3.0 0.00 0.00 0.00 42 1014.0
20260831001603 96 98 0.0 2.0 0.00 0.00 0.00 42 1014.1
20260831001036 96 184 0.0 2.0 0.00 0.00 0.00 40 1013.9
20260831000539 97 0 0.0 2.0 0.00 0.00 0.00 41 1014.0
20260830235539 97 191 0.0 2.0 0.00 0.00 0.00 40 1014.2
20260830235036 97 181 0.0 2.0 0.00 0.00 0.00 40 1014.2
20260830234558 97 198 0.0 3.0 0.00 0.00 0.00 40 1014.2
20260830234039 97 191 1.0 3.0 0.00 0.00 0.00 40 1014.2
20260830233541 98 173 1.0 3.0 0.00 0.00 0.00 40 1014.3
20260830233102 98 207 0.0 4.0 0.00 0.00 0.00 39 1014.3
20260830232537 98 195 1.0 4.0 0.00 0.00 0.00 39 1014.3
20260830232037 98 164 1.0 4.0 0.00 0.00 0.00 39 1014.3
20260830231603 98 134 1.0 3.0 0.00 0.00 0.00 39 1014.3
20260830231038 99 214 1.0 3.0 0.00 0.00 0.00 39 1014.3
20260830230538 99 148 1.0 3.0 0.00 0.00 0.00 39 1014.3
20260830230100 99 190 1.0 3.0 0.00 0.00 0.00 39 1014.3
20260830225536 99 137 1.0 3.0 0.00 0.00 0.00 39 1014.3
20260830225036 99 183 1.0 3.0 0.00 0.00 0.00 38 1014.3
20260830224608 98 205 1.0 6.0 0.00 0.00 0.00 38 1014.3
20260830224039 98 91 1.0 6.0 0.00 0.00 0.00 37 1014.2
20260830223541 99 120 2.0 6.0 0.00 0.00 0.00 37 1014.3
20260830223105 99 114 1.0 3.0 0.00 0.00 0.00 37 1014.3
20260830222540 99 111 0.0 3.0 0.00 0.00 0.00 36 1014.4
20260830222040 99 180 1.0 3.0 0.00 0.00 0.00 35 1014.5
20260830221600 99 156 1.0 3.0 0.00 0.00 0.00 35 1014.5
20260830221036 99 176 0.0 3.0 0.00 0.00 0.00 35 1014.4
20260830220537 99 158 0.0 4.0 0.00 0.00 0.00 35 1014.6
20260830220110 99 195 1.0 4.0 0.00 0.00 0.00 35 1014.5
20260830215542 99 119 1.0 2.0 0.00 0.00 0.00 35 1014.5
20260830215041 99 116 0.0 3.0 0.00 0.00 0.00 36 1014.5
20260830214604 99 140 0.0 3.0 0.00 0.00 0.00 37 1014.6
20260830214038 99 181 1.0 2.0 0.00 0.00 0.00 35 1014.7
20260830213538 100 151 1.0 4.0 0.00 0.00 0.00 35 1014.7
20260830213107 99 104 1.0 5.0 0.00 0.00 0.00 36 1014.7
20260830212536 99 174 1.0 5.0 0.00 0.00 0.00 36 1014.8
20260830212039 99 117 2.0 5.0 0.00 0.00 0.00 36 1014.9
20260830211602 99 198 1.0 4.0 0.00 0.00 0.00 36 1014.9
20260830211039 98 198 1.0 4.0 0.00 0.00 0.00 36 1015.0
20260830210539 98 45 1.0 4.0 0.00 0.00 0.00 37 1015.0
20260830210104 98 131 1.0 5.0 0.00 0.00 0.00 38 1015.0
20260830205539 99 167 1.0 5.0 0.00 0.00 0.00 37 1015.2
20260830205037 99 174 2.0 5.0 0.00 0.00 0.00 37 1015.3
20260830204604 99 201 1.0 3.0 0.00 0.00 0.00 37 1015.3
20260830204037 98 121 1.0 5.0 0.00 0.00 0.00 38 1015.3
20260830203536 99 102 1.0 5.0 0.00 0.00 0.00 37 1015.4
20260830203107 99 200 2.0 5.0 0.00 0.00 0.00 38 1015.4
20260830202543 99 194 2.0 5.0 0.00 0.00 0.00 37 1015.3
20260830202038 99 159 2.0 5.0 0.00 0.00 0.00 37 1015.3
20260830201604 99 201 1.0 5.0 0.00 0.00 0.00 37 1015.5
20260830201037 99 177 2.0 4.0 0.00 0.00 0.00 37 1015.6
20260830200537 100 200 1.0 4.0 0.00 0.00 0.00 37 1015.6
20260830200100 100 200 2.0 4.0 0.00 0.00 0.00 37 1015.7
20260830195538 100 167 2.0 5.0 0.00 0.00 0.00 38 1015.8
20260830195038 99 165 1.0 5.0 0.00 0.00 0.00 38 1015.8
20260830194612 99 255 2.0 5.0 0.00 0.00 0.00 37 1016.0
20260830194038 100 98 0.0 4.0 0.00 0.00 0.00 39 1016.0
20260830193541 100 169 2.0 4.0 0.00 0.00 0.00 38 1016.2
20260830193106 100 155 1.0 4.0 0.00 0.00 0.00 39 1016.1
20260830192540 100 205 1.0 4.0 0.00 0.00 0.00 39 1016.2
20260830192037 99 199 1.0 4.0 0.00 0.00 0.00 39 1016.2
20260830191604 99 185 1.0 4.0 0.00 0.00 0.00 39 1016.3
20260830191040 99 165 1.0 5.0 0.00 0.00 0.00 39 1016.5
20260830190537 99 209 1.0 5.0 0.00 0.00 0.00 39 1016.5
20260830185537 99 0 1.0 6.0 0.00 0.00 0.00 40 1016.7
20260830185038 99 111 1.0 6.0 0.00 0.00 0.00 39 1016.7
20260830184554 99 174 1.0 4.0 0.00 0.00 0.00 39 1016.8
20260830184037 99 172 1.0 5.0 0.00 0.00 0.00 39 1016.8
20260830183536 99 178 2.0 5.0 0.00 0.00 0.00 39 1016.9
20260830183106 99 208 1.0 4.0 0.00 0.00 0.00 38 1017.0
20260830182538 99 158 1.0 4.0 0.00 0.00 0.00 40 1017.1
20260830182037 99 163 1.0 6.0 0.00 0.00 0.00 39 1017.2
20260830181610 98 194 1.0 6.0 0.00 0.00 0.00 40 1017.3
20260830181037 98 146 2.0 6.0 0.00 0.00 0.00 39 1017.3
20260830180538 98 162 2.0 6.0 0.00 0.00 0.00 40 1017.5
20260830180105 98 172 3.0 6.0 0.00 0.00 0.00 40 1017.5
20260830175538 98 162 2.0 6.0 0.00 0.00 0.00 40 1017.5
20260830175036 97 198 1.0 5.0 0.00 0.00 0.00 42 1017.7
20260830174639 97 159 1.0 5.0 0.00 0.00 0.00 42 1017.7
20260830174036 97 200 1.0 5.0 0.00 0.00 0.00 42 1017.7
20260830173536 97 162 2.0 5.0 0.00 0.00 0.00 42 1017.8
20260830173109 97 150 2.0 5.0 0.00 0.00 0.00 42 1017.9
20260830172536 97 209 2.0 5.0 0.00 0.00 0.00 43 1018.0
20260830172037 96 197 1.0 6.0 0.00 0.00 0.00 43 1018.0
20260830171613 96 125 2.0 6.0 0.00 0.00 0.00 44 1018.0
20260830171037 96 119 1.0 6.0 0.00 0.00 0.00 44 1018.0
20260830170536 96 148 1.0 4.0 0.00 0.00 0.00 43 1018.3
20260830170112 96 173 1.0 5.0 0.00 0.00 0.00 45 1018.2
20260830165536 96 174 1.0 5.0 0.00 0.00 0.00 45 1018.2
20260830165036 95 162 2.0 5.0 0.00 0.00 0.00 46 1018.3
20260830164606 95 0 1.0 4.0 0.00 0.00 0.00 47 1018.4
20260830164036 95 235 1.0 5.0 0.00 0.00 0.00 48 1018.4
20260830163537 94 229 1.0 5.0 0.00 0.00 0.00 49 1018.5
20260830163103 94 243 2.0 5.0 0.00 0.00 0.00 49 1018.5
20260830162537 95 0 1.0 4.0 0.00 0.00 0.00 50 1018.6
20260830162037 95 184 0.0 3.0 0.00 0.00 0.00 51 1018.5
20260830161615 94 157 1.0 5.0 0.00 0.00 0.00 51 1018.6
20260830161036 94 129 2.0 5.0 0.00 0.00 0.00 51 1018.6
20260830160540 94 153 0.0 3.0 0.00 0.00 0.00 51 1018.5
20260830160105 94 140 1.0 3.0 0.00 0.00 0.00 52 1018.5
20260830155536 93 177 1.0 3.0 0.00 0.00 0.00 52 1018.5
20260830155037 93 208 1.0 3.0 0.00 0.00 0.00 53 1018.5
20260830154603 92 0 0.0 3.0 0.00 0.00 0.00 56 1018.6
20260830154037 91 215 1.0 3.0 0.00 0.00 0.00 55 1018.5
20260830153537 91 250 1.0 5.0 0.00 0.00 0.00 56 1018.6
20260830153106 90 159 0.0 5.0 0.00 0.00 0.00 57 1018.7
20260830152536 90 248 1.0 5.0 0.00 0.00 0.00 57 1018.6
20260830152036 90 238 1.0 3.0 0.00 0.00 0.00 58 1018.6
20260830151602 89 195 0.0 3.0 0.00 0.00 0.00 59 1018.7
20260830151036 89 224 1.0 3.0 0.00 0.00 0.00 58 1018.6
20260830150537 89 0 0.0 2.0 0.00 0.00 0.00 61 1018.6
20260830145540 88 0 1.0 3.0 0.00 0.00 0.00 64 1018.7
20260830145037 87 177 0.0 1.0 0.00 0.00 0.00 65 1018.7
20260830144600 87 200 0.0 2.0 0.00 0.00 0.00 66 1018.7
20260830144037 86 196 1.0 2.0 0.00 0.00 0.00 66 1018.8
20260830143539 86 166 0.0 3.0 0.00 0.00 0.00 67 1018.7
20260830143106 86 169 0.0 3.0 0.00 0.00 0.00 68 1018.7
20260830142537 85 169 0.0 3.0 0.00 0.00 0.00 69 1018.7
20260830142037 85 190 0.0 2.0 0.00 0.00 0.00 69 1018.8
20260830141603 85 172 0.0 2.0 0.00 0.00 0.00 69 1018.8
20260830141036 85 0 0.0 2.0 0.00 0.00 0.00 69 1018.7
20260830140536 85 0 0.0 2.0 0.00 0.00 0.00 70 1018.7
20260830140116 85 174 0.0 2.0 0.00 0.00 0.00 70 1018.7
20260830135541 85 0 0.0 1.0 0.00 0.00 0.00 70 1018.6
20260830135037 85 129 0.0 2.0 0.00 0.00 0.00 70 1018.6
20260830134554 85 174 0.0 2.0 0.00 0.00 0.00 69 1018.6
20260830134037 85 132 0.0 2.0 0.00 0.00 0.00 68 1018.6
20260830133534 85 141 0.0 1.0 0.00 0.00 0.00 68 1018.5
20260830133106 84 131 0.0 1.0 0.00 0.00 0.00 68 1018.5
20260830132537 84 0 0.0 1.0 0.00 0.00 0.00 70 1018.4
20260830132039 83 132 0.0 1.0 0.00 0.00 0.00 70 1018.5
20260830131611 82 0 0.0 1.0 0.00 0.00 0.00 71 1018.4
20260830131039 81 0 0.0 1.0 0.00 0.00 0.00 72 1018.3
20260830130536 80 0 0.0 1.0 0.00 0.00 0.00 73 1018.3
20260830125537 79 0 0.0 1.0 0.00 0.00 0.00 74 1018.2
20260830125036 78 91 0.0 0.0 0.00 0.00 0.00 75 1018.2
20260830124557 77 0 0.0 0.0 0.00 0.00 0.00 76 1018.1
20260830124040 76 0 0.0 0.0 0.00 0.00 0.00 77 1017.9
20260830123540 76 0 0.0 0.0 0.00 0.00 0.00 79 1018.0
20260830123103 75 0 0.0 0.0 0.00 0.00 0.00 80 1017.8
20260830122536 74 0 0.0 0.0 0.00 0.00 0.00 80 1017.8
20260830122039 74 0 0.0 0.0 0.00 0.00 0.00 80 1017.7
20260830121603 74 0 0.0 0.0 0.00 0.00 0.00 80 1017.6
20260830121035 74 0 0.0 0.0 0.00 0.00 0.00 80 1017.5
20260830120540 74 0 0.0 0.0 0.00 0.00 0.00 80 1017.5
20260830120107 74 0 0.0 0.0 0.00 0.00 0.00 81 1017.5
20260830115540 74 0 0.0 0.0 0.00 0.00 0.00 80 1017.4
20260830115040 74 0 0.0 0.0 0.00 0.00 0.00 79 1017.4
20260830114604 74 0 0.0 0.0 0.00 0.00 0.00 79 1017.3
20260830114040 74 0 0.0 0.0 0.00 0.00 0.00 79 1017.2
20260830113539 74 0 0.0 0.0 0.00 0.00 0.00 79 1017.2
20260830113105 74 0 0.0 0.0 0.00 0.00 0.00 78 1017.0
20260830112540 74 0 0.0 0.0 0.00 0.00 0.00 78 1017.0
20260830112040 75 0 0.0 0.0 0.00 0.00 0.00 77 1017.0
20260830111603 75 0 0.0 0.0 0.00 0.00 0.00 78 1017.0
20260830111041 75 0 0.0 0.0 0.00 0.00 0.00 77 1016.9
20260830110541 75 0 0.0 0.0 0.00 0.00 0.00 77 1016.9
20260830105540 75 0 0.0 0.0 0.00 0.00 0.00 77 1016.8
20260830105044 75 0 0.0 0.0 0.00 0.00 0.00 77 1016.8
20260830104604 75 0 0.0 0.0 0.00 0.00 0.00 76 1016.8
20260830104038 75 0 0.0 0.0 0.00 0.00 0.00 76 1016.8
20260830103537 76 0 0.0 0.0 0.00 0.00 0.00 75 1016.7
20260830103106 76 0 0.0 0.0 0.00 0.00 0.00 75 1016.7
20260830102539 76 0 0.0 0.0 0.00 0.00 0.00 74 1016.7
20260830102039 76 0 0.0 0.0 0.00 0.00 0.00 74 1016.8
20260830101608 76 0 0.0 0.0 0.00 0.00 0.00 74 1016.7
20260830101037 76 0 0.0 0.0 0.00 0.00 0.00 74 1016.8
20260830100541 77 0 0.0 0.0 0.00 0.00 0.00 73 1016.7
20260830095540 77 0 0.0 0.0 0.00 0.00 0.00 73 1016.7
20260830095040 77 0 0.0 0.0 0.00 0.00 0.00 72 1016.7
20260830094633 77 0 0.0 0.0 0.00 0.00 0.00 72 1016.7
20260830094039 77 0 0.0 0.0 0.00 0.00 0.00 72 1016.6
20260830093539 77 0 0.0 0.0 0.00 0.00 0.00 72 1016.6
20260830093106 77 0 0.0 0.0 0.00 0.00 0.00 71 1016.6
20260830092539 77 0 0.0 0.0 0.00 0.00 0.00 71 1016.4
20260830092043 77 0 0.0 1.0 0.00 0.00 0.00 71 1016.5
20260830091601 77 0 0.0 1.0 0.00 0.00 0.00 70 1016.5
20260830091045 78 0 0.0 0.0 0.00 0.00 0.00 70 1016.6
20260830090541 78 0 0.0 0.0 0.00 0.00 0.00 70 1016.5
20260830090108 78 0 0.0 0.0 0.00 0.00 0.00 69 1016.5
20260830085539 78 0 0.0 0.0 0.00 0.00 0.00 69 1016.5
20260830085040 78 0 0.0 0.0 0.00 0.00 0.00 68 1016.4
20260830084605 79 0 0.0 0.0 0.00 0.00 0.00 68 1016.4
20260830084037 79 0 0.0 0.0 0.00 0.00 0.00 68 1016.4
20260830083536 79 0 0.0 0.0 0.00 0.00 0.00 67 1016.2
20260830083123 79 0 0.0 0.0 0.00 0.00 0.00 66 1016.3
20260830082540 80 0 0.0 0.0 0.00 0.00 0.00 66 1016.4
20260830082044 80 0 0.0 0.0 0.00 0.00 0.00 65 1016.3
20260830081605 80 0 0.0 0.0 0.00 0.00 0.00 65 1016.4
20260830081040 80 0 0.0 0.0 0.00 0.00 0.00 64 1016.4
20260830080540 81 0 0.0 1.0 0.00 0.00 0.00 64 1016.6
20260830075537 81 0 0.0 1.0 0.00 0.00 0.00 63 1016.5
20260830075041 81 0 0.0 4.0 0.00 0.00 0.00 62 1016.6
20260830074609 82 0 1.0 4.0 0.00 0.00 0.00 62 1016.7
20260830074040 82 102 1.0 3.0 0.00 0.00 0.00 63 1016.5
20260830073544 81 121 0.0 1.0 0.00 0.00 0.00 63 1016.5
20260830073105 82 0 0.0 1.0 0.00 0.00 0.00 63 1016.5
20260830072537 82 0 0.0 1.0 0.00 0.00 0.00 63 1016.5
20260830072040 82 0 0.0 1.0 0.00 0.00 0.00 62 1016.4
20260830071617 82 0 0.0 0.0 0.00 0.00 0.00 62 1016.3
20260830071040 82 0 0.0 0.0 0.00 0.00 0.00 62 1016.3
20260830070542 82 0 0.0 0.0 0.00 0.00 0.00 61 1016.2
20260830070108 82 0 0.0 0.0 0.00 0.00 0.00 61 1016.3
20260830065540 82 0 0.0 0.0 0.00 0.00 0.00 61 1016.3
20260830065040 82 0 0.0 0.0 0.00 0.00 0.00 61 1016.3
20260830064605 82 0 0.0 0.0 0.00 0.00 0.00 61 1016.3
20260830064043 82 0 0.0 0.0 0.00 0.00 0.00 61 1016.2
20260830063542 82 0 0.0 0.0 0.00 0.00 0.00 61 1016.3
20260830063103 82 0 0.0 0.0 0.00 0.00 0.00 61 1016.3
20260830062540 82 0 0.0 0.0 0.00 0.00 0.00 61 1016.3
20260830062039 82 0 0.0 0.0 0.00 0.00 0.00 60 1016.3
20260830061603 82 0 0.0 0.0 0.00 0.00 0.00 60 1016.3
20260830061040 82 0 0.0 0.0 0.00 0.00 0.00 60 1016.3
20260830060540 82 0 0.0 0.0 0.00 0.00 0.00 59 1016.4
20260830060108 82 0 0.0 0.0 0.00 0.00 0.00 59 1016.4
20260830055540 82 0 0.0 0.0 0.00 0.00 0.00 59 1016.5
20260830055040 81 0 0.0 0.0 0.00 0.00 0.00 59 1016.4
20260830054605 81 0 0.0 0.0 0.00 0.00 0.00 59 1016.3
20260830054036 81 0 0.0 0.0 0.00 0.00 0.00 59 1016.3
20260830053542 81 0 0.0 0.0 0.00 0.00 0.00 60 1016.3
20260830053114 81 0 0.0 0.0 0.00 0.00 0.00 60 1016.4
20260830052539 81 0 0.0 0.0 0.00 0.00 0.00 60 1016.4
20260830052040 82 0 0.0 0.0 0.00 0.00 0.00 59 1016.2
20260830051607 82 0 0.0 0.0 0.00 0.00 0.00 59 1016.3
20260830051040 81 0 0.0 0.0 0.00 0.00 0.00 58 1016.4
20260830050540 81 0 0.0 0.0 0.00 0.00 0.00 59 1016.4
20260830050120 81 0 0.0 0.0 0.00 0.00 0.00 59 1016.4
20260830045536 81 0 0.0 0.0 0.00 0.00 0.00 60 1016.4
20260830045039 81 0 0.0 0.0 0.00 0.00 0.00 59 1016.5
20260830044559 82 0 0.0 0.0 0.00 0.00 0.00 60 1016.4
20260830044040 82 0 0.0 0.0 0.00 0.00 0.00 59 1016.5
20260830043537 82 0 0.0 0.0 0.00 0.00 0.00 58 1016.6
20260830043107 82 0 0.0 0.0 0.00 0.00 0.00 58 1016.5
20260830042540 82 0 0.0 0.0 0.00 0.00 0.00 58 1016.5
20260830042040 83 0 0.0 0.0 0.00 0.00 0.00 57 1016.4
20260830041629 83 0 0.0 0.0 0.00 0.00 0.00 56 1016.4
20260830041041 83 0 0.0 0.0 0.00 0.00 0.00 56 1016.3
20260830040540 83 0 0.0 0.0 0.00 0.00 0.00 55 1016.3
20260830040112 84 0 0.0 0.0 0.00 0.00 0.00 55 1016.3
20260830035541 84 0 0.0 0.0 0.00 0.00 0.00 55 1016.2
20260830035040 84 0 0.0 0.0 0.00 0.00 0.00 54 1016.3
20260830034601 84 0 0.0 0.0 0.00 0.00 0.00 54 1016.3